Wind_Speed
30 28 31 30 29 32 39 36 39 38 39 37 37 35 40 33 21 20 29 30 28 29 32 33 58 55 44 42 42 46 45 46 50 47 40 43 42 43 40 32 31 33 31 34 34
32 29 28 28 29 36 42 37 38 38 36 37 36 37 32 30 32 22 17 27 29 25 31 32 27 31 29 41 37 41 47 49 43 38 44 46 49 45 34 31 31 30 31 30 31
33 30 32 31 34 37 42 38 37 35 35 36 36 36 34 32 35 25 23 18 30 30 29 34 38 30 27 34 41 45 42 44 44 46 42 47 45 37 31 30 30 28 26 31 32
40 38 34 36 37 40 41 38 36 36 36 36 36 35 33 31 32 31 29 23 20 22 34 33 38 42 36 35 42 45 47 44 45 46 50 38 36 32 32 31 29 27 30 31 36
43 41 35 36 38 40 39 38 36 35 39 38 37 36 33 32 31 34 29 27 21 19 26 30 37 37 40 43 47 44 47 48 45 45 35 33 32 33 32 29 27 26 28 34 40
45 43 39 36 40 43 42 39 37 37 36 39 39 38 36 32 31 34 33 26 24 21 18 20 22 26 39 35 40 44 40 39 40 32 31 32 32 33 32 26 24 27 29 37 42
49 44 42 42 44 43 44 41 38 38 39 38 41 40 39 36 29 32 32 29 24 22 20 21 21 23 25 28 27 30 31 31 30 31 31 31 33 31 32 26 25 28 34 38 47
50 49 46 46 46 45 45 46 43 41 43 41 42 41 42 37 34 30 31 31 29 27 21 20 21 22 23 27 25 31 32 31 28 31 29 32 32 31 33 27 25 30 35 40 48
54 54 53 52 51 51 52 52 50 48 49 47 43 45 46 41 38 33 31 31 30 31 30 24 19 19 24 27 30 29 31 28 30 31 29 31 32 30 33 29 28 32 34 41 49
62 62 61 60 58 58 58 56 52 52 53 51 48 47 47 45 39 35 35 33 33 33 31 24 20 19 18 28 29 29 31 29 31 30 31 31 33 32 32 34 34 35 37 43 49
67 68 68 67 62 61 64 61 57 54 57 55 55 56 50 50 45 42 40 37 37 35 33 26 25 22 18 21 29 29 33 32 32 32 32 30 31 33 33 33 37 41 34 43 50
72 74 72 70 69 73 72 70 66 60 58 62 60 58 59 54 52 46 44 45 42 39 33 32 28 28 23 23 22 27 32 34 33 33 32 31 31 29 30 32 32 33 34 42 48
75 78 81 82 81 79 78 78 72 66 61 70 67 62 63 57 57 55 48 47 46 41 39 32 32 32 26 25 23 24 30 35 35 32 32 30 33 34 31 34 32 30 33 40 45
86 87 89 91 89 88 88 83 82 82 72 68 73 72 69 62 58 62 54 53 47 47 47 36 39 33 29 30 24 24 26 34 34 34 32 33 32 30 32 27 27 30 31 38 44
96 97 95 98 94 93 94 91 89 86 81 80 73 74 79 74 67 69 64 62 57 54 51 45 41 38 35 34 31 27 26 30 35 35 35 37 33 34 32 27 28 27 30 36 41
96 99 98 97 100 102 101 98 97 93 80 84 83 83 77 75 76 70 70 67 65 60 54 52 45 44 41 36 37 33 27 29 35 36 38 36 31 32 32 28 27 28 30 35 40
104 103 104 102 101 102 105 108 105 93 94 98 88 81 84 79 79 75 77 71 70 68 61 60 53 46 45 39 39 40 32 28 34 36 39 40 33 30 31 31 30 28 28 34 40
105 105 106 106 106 107 108 104 100 91 92 99 99 90 87 84 81 82 81 79 75 73 70 66 58 55 52 48 43 39 40 35 30 34 38 42 38 33 31 32 31 29 27 33 38
106 104 104 105 107 109 115 111 103 98 100 106 100 98 93 84 85 85 80 78 78 73 74 70 62 64 55 55 48 43 41 44 33 33 38 44 41 36 33 34 34 31 30 32 34
109 103 103 110 112 115 115 113 110 105 107 108 101 102 101 96 97 92 80 75 77 76 75 74 71 65 61 59 53 48 45 45 45 37 38 44 44 38 34 35 34 32 30 30 30
117 110 105 113 113 118 113 112 111 111 111 116 116 115 111 110 109 102 99 86 82 89 85 78 81 75 63 59 60 55 45 49 47 44 38 44 43 42 37 35 34 32 30 27 28
117 113 101 110 113 109 109 112 110 109 114 119 121 121 114 119 120 114 103 101 97 91 97 88 91 84 70 70 65 58 53 47 45 47 44 38 45 45 39 35 32 30 25 25 26
119 113 106 119 115 113 120 119 119 120 125 131 134 124 120 113 111 107 107 107 105 98 97 98 97 87 79 74 67 59 58 53 51 50 45 39 46 48 42 36 33 29 25 24 25
116 108 105 111 113 107 109 110 104 109 113 112 111 109 103 100 102 100 103 110 109 105 103 106 100 89 82 72 75 73 66 63 57 51 53 44 44 49 47 39 35 30 28 26 24
114 107 105 105 105 104 103 103 97 101 101 103 100 92 96 94 91 91 94 99 99 101 103 104 102 93 87 87 80 79 70 66 54 53 50 56 43 49 49 44 38 33 30 28 25
110 105 101 96 97 100 95 91 93 90 97 92 84 84 86 82 81 84 88 92 91 93 95 97 92 96 95 94 88 81 75 66 58 57 54 52 49 50 51 47 41 36 32 29 25
100 100 97 85 91 90 87 83 89 89 85 80 77 77 76 81 81 75 83 81 81 85 88 90 88 96 93 93 94 88 69 69 65 63 58 50 61 48 51 48 46 40 35 32 29
Wind_Direction
331 338 338 345 347 350 349 353 355 354 354 356 357 2 359 15 357 268 259 253 261 263 240 242 248 256 257 246 251 259 263 268 267 269 271 271 285 286 283 273 270 270 272 275 280
327 325 328 329 333 337 346 344 347 351 353 353 358 355 359 359 4 1 289 250 263 252 234 232 244 239 249 249 247 255 261 264 266 274 274 274 279 281 273 267 269 271 277 285 291
321 315 315 322 325 322 333 339 342 341 349 348 349 348 349 346 345 351 349 309 261 251 246 239 247 233 236 250 248 257 257 257 268 274 274 271 276 271 263 262 266 276 286 299 302
312 311 308 309 314 320 327 334 334 332 333 339 343 344 343 344 339 342 343 343 320 270 250 250 246 248 246 247 249 248 256 264 262 267 272 266 268 260 259 260 270 272 290 300 306
309 309 303 305 307 310 316 322 324 328 326 330 333 334 337 338 336 337 338 335 334 310 269 253 256 247 256 259 258 255 260 261 265 268 260 259 257 255 258 263 268 287 297 304 305
300 300 299 304 306 311 313 314 315 318 323 323 325 327 330 329 331 332 331 331 338 327 297 262 261 262 257 266 262 262 260 258 258 258 258 255 252 254 258 263 277 293 303 307 308
299 303 300 299 301 305 307 308 309 312 314 319 324 321 320 322 321 322 327 325 325 323 318 298 268 266 254 260 264 259 255 256 250 253 251 251 252 258 260 265 282 300 304 308 312
293 297 295 294 295 296 298 298 299 299 305 307 315 320 320 322 318 314 318 318 324 324 322 322 303 266 269 262 264 261 256 254 250 250 248 248 251 261 261 262 287 299 306 314 315
294 294 294 291 290 291 293 293 294 294 295 297 304 309 313 312 313 312 309 307 311 310 314 306 324 299 264 267 266 260 257 260 241 246 246 248 253 260 261 262 288 298 308 316 318
291 292 289 289 288 288 289 290 288 290 292 294 298 300 303 306 303 308 305 301 299 305 307 304 302 315 306 262 267 263 263 255 246 244 248 246 258 258 260 269 284 298 308 315 317
289 290 291 287 287 287 288 289 287 285 286 288 293 296 295 295 299 294 297 299 296 291 302 287 299 308 314 289 263 265 263 256 247 245 246 246 253 257 262 276 286 295 307 318 318
287 289 286 285 285 288 290 288 288 286 286 288 290 292 292 292 291 291 288 288 292 289 290 288 283 292 293 308 287 264 264 254 247 244 246 250 251 257 267 280 291 299 314 318 324
286 286 286 286 286 285 285 285 284 283 281 291 286 289 286 288 287 288 285 283 286 286 283 284 276 281 290 291 305 276 256 255 246 243 246 247 252 259 267 289 289 302 315 319 330
283 287 286 284 282 281 282 283 281 282 279 280 288 285 283 278 281 281 284 279 280 281 279 281 279 277 278 279 296 289 260 253 248 246 245 246 255 260 276 288 284 307 316 321 331
284 282 281 283 283 282 280 280 281 280 279 279 280 279 281 280 275 276 277 282 276 275 277 274 271 267 264 272 280 291 276 252 248 250 249 246 253 263 275 281 288 306 314 325 332
280 281 280 279 280 278 280 281 278 280 283 279 274 272 274 275 276 275 273 273 273 272 271 272 265 262 264 260 267 278 280 264 249 250 251 252 254 262 269 275 285 301 314 326 332
283 283 279 277 276 278 278 277 279 280 282 279 274 272 271 274 274 272 275 274 272 271 271 266 268 260 258 256 252 258 272 275 254 248 251 255 255 260 264 274 282 294 312 323 329
279 279 278 277 276 276 277 275 275 279 276 276 273 271 272 271 275 274 272 272 272 270 265 263 263 259 252 253 252 251 262 264 273 250 249 253 253 258 257 266 276 288 310 321 326
275 275 273 275 273 273 274 275 278 278 276 272 270 272 271 267 273 269 269 270 265 264 264 260 257 256 251 249 249 248 248 257 265 265 245 250 252 255 257 261 273 283 300 314 322
275 272 271 271 270 270 270 273 275 273 274 274 274 273 272 271 274 265 259 258 258 256 254 256 254 251 248 247 249 245 245 247 254 261 255 246 251 251 254 260 268 277 294 306 319
273 272 269 268 269 266 267 268 270 270 270 269 270 270 271 273 274 268 258 252 251 249 249 251 253 252 246 247 246 242 241 243 248 256 263 250 248 248 251 259 265 273 286 297 313
271 273 269 268 263 264 268 268 267 270 267 268 269 269 269 271 271 267 258 251 248 241 244 244 246 248 246 239 241 242 240 241 242 244 250 260 247 248 248 254 263 268 278 291 305
273 272 272 271 267 269 269 267 268 268 266 266 268 270 270 269 266 263 257 251 247 244 238 241 242 242 243 240 241 240 242 237 237 244 248 252 248 246 246 249 257 262 269 281 296
277 276 274 271 273 272 271 270 269 267 267 268 267 266 266 262 259 257 255 252 249 248 244 239 240 239 241 235 235 236 235 234 233 237 243 246 249 246 246 245 252 257 263 272 283
278 278 277 276 276 274 273 272 271 268 268 265 266 265 262 260 257 256 254 252 251 248 246 242 240 236 233 235 230 234 232 233 230 233 244 244 250 249 246 244 246 252 259 265 274
279 279 277 276 275 274 273 274 272 270 266 267 267 264 262 260 257 252 248 247 244 243 242 241 237 231 227 231 231 229 229 230 229 232 238 248 246 245 245 244 244 247 253 258 265
279 277 277 277 276 275 276 272 270 266 266 264 262 260 258 254 251 248 249 244 242 239 239 236 232 229 226 230 230 226 225 228 224 229 233 246 240 243 245 243 242 244 249 254 260
Height
10856 10852 10849 10846 10841 10837 10834 10829 10824 10819 10814 10812 10808 10803 10800 10797 10795 10793 10793 10794 10794 10795 10794 10798 10798 10800 10803 10808 10812 10812 10815 10815 10814 10814 10814 10815 10814 10813 10811 10810 10810 10810 10812 10811 10811
10852 10849 10846 10842 10839 10835 10831 10827 10823 10819 10814 10811 10808 10805 10801 10799 10795 10792 10791 10790 10790 10790 10792 10793 10794 10796 10799 10800 10804 10807 10809 10807 10806 10807 10807 10807 10807 10805 10805 10804 10804 10804 10805 10805 10803
10848 10846 10843 10840 10836 10831 10828 10825 10821 10818 10814 10810 10807 10804 10802 10798 10795 10793 10790 10787 10785 10786 10785 10787 10788 10791 10791 10793 10797 10798 10799 10798 10798 10800 10799 10798 10798 10798 10798 10799 10798 10799 10798 10795 10793
10843 10840 10837 10835 10832 10828 10824 10821 10818 10815 10812 10810 10806 10802 10800 10797 10793 10790 10788 10784 10782 10780 10781 10780 10782 10783 10786 10788 10788 10788 10788 10789 10791 10792 10791 10790 10791 10791 10792 10792 10793 10792 10790 10787 10783
10837 10834 10831 10829 10827 10823 10820 10817 10814 10812 10809 10806 10804 10801 10797 10795 10791 10788 10784 10782 10779 10777 10775 10776 10776 10776 10778 10779 10779 10780 10780 10782 10783 10783 10782 10783 10784 10785 10786 10786 10787 10786 10783 10779 10774
10830 10827 10825 10823 10820 10818 10816 10813 10810 10807 10805 10803 10800 10797 10794 10790 10787 10785 10782 10780 10776 10773 10772 10770 10769 10769 10770 10771 10770 10770 10772 10773 10774 10776 10777 10778 10778 10779 10780 10780 10781 10778 10775 10770 10763
10822 10820 10817 10815 10813 10811 10809 10807 10805 10802 10800 10798 10796 10792 10789 10785 10784 10780 10778 10775 10773 10770 10767 10766 10764 10763 10763 10764 10764 10764 10764 10766 10768 10769 10771 10773 10773 10773 10774 10775 10774 10770 10766 10761 10753
10812 10810 10809 10806 10805 10803 10801 10798 10797 10795 10794 10792 10790 10788 10783 10781 10777 10775 10772 10770 10769 10767 10764 10761 10760 10757 10757 10757 10758 10758 10758 10760 10761 10763 10765 10767 10767 10768 10767 10768 10767 10763 10759 10753 10746
10801 10798 10797 10796 10794 10792 10792 10790 10788 10787 10785 10783 10783 10781 10778 10776 10771 10768 10766 10764 10763 10761 10760 10757 10754 10752 10751 10751 10750 10752 10752 10753 10754 10756 10760 10761 10761 10763 10760 10762 10760 10756 10751 10746 10738
10788 10786 10784 10783 10781 10779 10779 10779 10778 10777 10774 10772 10773 10772 10771 10767 10765 10762 10759 10757 10756 10755 10754 10753 10750 10747 10745 10744 10743 10746 10746 10747 10748 10752 10752 10756 10754 10756 10755 10755 10754 10749 10744 10737 10728
10774 10770 10768 10768 10767 10765 10764 10765 10765 10768 10763 10761 10762 10758 10760 10757 10756 10753 10751 10749 10748 10747 10748 10745 10744 10742 10740 10737 10737 10739 10739 10740 10742 10745 10746 10749 10749 10749 10750 10750 10747 10744 10737 10730 10720
10757 10753 10750 10751 10751 10750 10748 10747 10748 10752 10754 10748 10746 10750 10745 10747 10744 10740 10741 10739 10739 10739 10740 10739 10737 10736 10734 10732 10730 10731 10732 10733 10736 10739 10740 10743 10742 10744 10744 10743 10741 10738 10731 10723 10713
10739 10735 10731 10730 10730 10731 10729 10725 10728 10732 10740 10732 10731 10734 10729 10734 10729 10726 10728 10727 10729 10730 10730 10732 10728 10728 10727 10726 10725 10723 10724 10726 10729 10732 10734 10737 10736 10737 10738 10737 10735 10732 10725 10717 10707
10720 10715 10711 10706 10708 10708 10705 10707 10707 10708 10716 10725 10719 10712 10711 10716 10720 10708 10715 10714 10719 10717 10718 10723 10719 10720 10720 10718 10719 10717 10717 10718 10723 10726 10728 10729 10732 10733 10732 10732 10729 10725 10719 10712 10702
10697 10693 10689 10685 10681 10683 10678 10679 10682 10686 10694 10697 10704 10698 10687 10692 10702 10693 10701 10699 10703 10703 10709 10709 10709 10710 10710 10710 10712 10711 10711 10712 10715 10720 10723 10722 10727 10727 10726 10725 10722 10720 10715 10708 10698
10673 10667 10662 10661 10659 10650 10652 10652 10655 10659 10674 10662 10673 10674 10674 10675 10674 10679 10680 10684 10685 10690 10694 10693 10698 10697 10699 10701 10703 10703 10704 10706 10708 10712 10715 10716 10720 10720 10718 10720 10718 10715 10710 10704 10695
10641 10639 10634 10634 10630 10625 10622 10623 10627 10643 10642 10628 10640 10645 10649 10654 10654 10662 10655 10668 10669 10671 10678 10674 10683 10686 10687 10691 10690 10693 10696 10698 10700 10703 10708 10707 10711 10714 10713 10713 10712 10711 10706 10700 10692
10606 10605 10603 10599 10598 10593 10590 10591 10604 10622 10611 10597 10601 10617 10628 10628 10631 10635 10638 10644 10649 10651 10652 10659 10668 10670 10673 10675 10679 10683 10688 10689 10692 10696 10698 10699 10702 10705 10706 10706 10706 10705 10702 10697 10691
10570 10571 10574 10565 10563 10560 10557 10564 10584 10583 10575 10566 10573 10580 10594 10603 10605 10608 10618 10622 10627 10628 10631 10637 10647 10646 10659 10658 10667 10671 10676 10677 10684 10686 10690 10689 10694 10695 10699 10699 10699 10699 10698 10694 10689
10534 10540 10545 10533 10525 10522 10525 10545 10548 10542 10536 10532 10547 10548 10558 10569 10568 10582 10591 10603 10602 10604 10602 10616 10620 10629 10641 10643 10652 10660 10661 10668 10674 10677 10681 10681 10685 10688 10692 10692 10693 10694 10693 10691 10687
10490 10501 10516 10495 10489 10483 10496 10506 10510 10513 10505 10497 10505 10511 10525 10532 10538 10545 10562 10577 10580 10578 10577 10589 10591 10606 10627 10634 10632 10642 10652 10654 10662 10668 10671 10672 10679 10679 10683 10685 10688 10688 10688 10687 10684
10438 10455 10477 10455 10449 10460 10461 10461 10470 10479 10471 10461 10461 10475 10490 10496 10502 10499 10523 10535 10530 10549 10554 10567 10562 10579 10606 10609 10615 10628 10637 10644 10652 10654 10660 10665 10669 10671 10675 10679 10681 10682 10683 10682 10681
10392 10410 10436 10405 10409 10425 10415 10422 10428 10435 10429 10426 10420 10436 10448 10459 10457 10466 10478 10488 10498 10515 10527 10531 10534 10560 10577 10593 10607 10618 10623 10629 10635 10643 10651 10655 10657 10662 10666 10671 10674 10677 10678 10677 10677
10352 10371 10386 10368 10366 10382 10378 10377 10389 10387 10385 10383 10385 10398 10406 10415 10418 10430 10436 10441 10462 10481 10496 10498 10511 10540 10563 10584 10582 10588 10599 10609 10618 10634 10637 10646 10647 10651 10658 10663 10667 10670 10672 10672 10672
10314 10333 10339 10339 10336 10334 10336 10334 10348 10348 10345 10341 10351 10370 10365 10372 10386 10396 10404 10412 10429 10448 10457 10463 10492 10518 10540 10548 10559 10569 10584 10596 10613 10623 10630 10626 10640 10642 10648 10655 10659 10663 10666 10667 10667
10281 10289 10295 10308 10301 10294 10300 10310 10304 10311 10298 10311 10326 10330 10330 10346 10356 10360 10367 10375 10393 10409 10422 10433 10467 10483 10505 10517 10531 10550 10565 10584 10601 10608 10618 10622 10629 10631 10637 10645 10651 10655 10659 10661 10662
10253 10253 10253 10279 10264 10264 10270 10273 10265 10267 10275 10285 10295 10299 10308 10305 10310 10334 10336 10358 10373 10382 10393 10408 10435 10447 10483 10497 10504 10519 10564 10567 10582 10590 10603 10613 10606 10623 10626 10635 10641 10647 10652 10654 10656